Flag for Germany Weather past 2 weeks in Hofheim am Taunus, Hesse, Germany

Now
49 °F

Clear.


Feels Like: 47 °F
Forecast: 40 / 47 °F
Wind: 5 mph from Northwest

Location: Wiesbaden Airport

Current Time: Oct 21, 2014 at 5:02:01 AM

Latest Report: Oct 21, 2014 at 3:58 AM


Visibility: N/A

Pressure: 29.96 "Hg

Humidity: 99%

Dew point: 49 °F

Location of Hofheim am TaunusLocation

Historic Weather in Hofheim am Taunus — Graph

°F

Hofheim am Taunus temperature yesterday

Maximum temperature yesterday: 66 °F (at 1:58 PM)
Minimum temperature yesterday: 49 °F (at 11:58 PM)
Average temperature yesterday: 60 °F

Past Weeks' High & Low Weather Summary

 TemperatureHumidityPressure
High72 °F (Oct 19, 3:58 PM)100% (Oct 7, 5:58 AM)30.21 "Hg (Oct 7, 5:58 AM)
Low46 °F (Oct 12, 7:59 AM)59% (Oct 15, 3:58 PM)29.66 "Hg (Oct 7, 10:59 AM)
Average58 °F92%29.90 "Hg
* Reported Oct 6 3:58 AM — Oct 21 3:58 AM, Hofheim am Taunus, Weather by CustomWeather, © 2014

Note: Actual official high and low records may vary slightly from our data, if they occured in-between our weather recording intervals... More about our weather records

Advertising

Hofheim am Taunus weather history for previous 24 hours

 ConditionsComfort  
Time TempWeatherWind HumidityBarometerVisibility
3:58 AM
Oct 21
49 °FClear.5 mph99%29.96 "HgN/A
2:58 AM48 °FClear.6 mph100%29.98 "HgN/A
1:58 AM50 °FClear.3 mph98%29.99 "HgN/A
12:58 AM50 °FClear.No wind94%29.99 "HgN/A
11:58 PM
Oct 20
49 °FClear.3 mph97%29.99 "HgN/A
10:58 PM50 °FClear.No wind94%30.01 "HgN/A
9:58 PM52 °FClear.3 mph88%30.01 "HgN/A
8:58 PM55 °FClear.5 mph80%30.01 "HgN/A
7:58 PM55 °FPassing clouds.2 mph82%30.01 "HgN/A
6:58 PM59 °FSunny.5 mph77%30.02 "HgN/A
5:58 PM61 °FPassing clouds.5 mph70%30.02 "HgN/A
4:58 PM62 °FScattered clouds.5 mph66%30.04 "HgN/A
3:58 PM64 °FOvercast.8 mph65%30.05 "HgN/A
2:58 PM65 °FPartly sunny.13 mph65%30.05 "HgN/A
1:58 PM66 °FScattered clouds.13 mph64%30.05 "HgN/A
12:58 PM65 °FScattered clouds.10 mph71%30.07 "HgN/A
11:58 AM64 °FScattered clouds.6 mph78%30.08 "HgN/A
10:58 AM62 °FOvercast.8 mph86%30.09 "HgN/A
10:01 AM61 °FPartly sunny.6 mph83%30.08 "HgN/A
9:58 AM61 °FCloudy.7 mph83%30.08 "HgN/A
8:58 AM59 °FOvercast.2 mph85%30.08 "HgN/A
7:58 AM59 °FOvercast.2 mph82%30.08 "HgN/A
6:58 AM59 °FOvercast.3 mph82%30.07 "HgN/A
Weather by CustomWeather, © 2014

See weather overviewHow to use our weather pages